Temp
17 17 16 17 17 18 18 18 18 18 18 18 19 19 18 19 19 18 19 19 19 18 19 19 19 19 18 19 18 18 18 18 18 18 18 18 18 18 18 19 19 19 19
18 17 16 17 17 17 18 18 18 18 18 18 18 19 18 18 18 18 18 18 18 18 18 18 18 18 18 18 18 18 17 18 18 18 18 18 18 18 18 19 19 18 19
18 17 16 16 17 17 17 18 18 18 18 19 19 18 17 19 18 19 18 18 18 18 18 18 18 18 18 18 18 17 17 18 18 17 17 18 18 18 18 18 19 18 18
17 17 17 16 17 17 17 17 18 18 18 18 18 18 18 18 18 18 19 18 18 18 18 18 18 18 18 18 17 17 18 18 18 18 17 18 18 18 18 18 18 18 18
17 17 17 17 16 17 16 17 17 17 18 18 18 18 18 17 18 18 18 18 17 18 17 17 17 17 17 17 17 17 17 18 18 18 18 17 18 18 17 17 17 17 18
17 17 17 17 16 16 17 17 17 17 18 18 18 17 17 18 18 17 17 17 17 17 16 16 17 17 17 17 16 17 17 18 18 18 17 17 17 17 17 17 17 17 17
17 17 17 17 17 17 17 17 18 17 18 18 17 17 17 17 18 17 17 17 16 16 16 16 16 17 16 16 17 17 17 18 18 17 17 17 17 17 17 17 17 17 17
17 17 17 17 17 17 17 17 17 17 17 17 17 16 18 17 17 17 16 16 16 16 16 15 16 16 16 15 17 17 17 17 17 17 17 17 16 16 16 16 16 16 16
16 17 16 16 17 16 16 17 16 16 16 16 15 16 18 17 16 16 15 15 15 15 15 15 15 15 15 16 17 17 17 17 17 16 16 16 16 16 16 15 15 15 15
16 17 16 16 16 15 16 16 16 15 15 14 14 16 16 16 14 14 15 14 14 14 14 14 14 14 15 16 16 16 16 16 16 15 15 15 15 15 15 15 15 14 14
16 16 17 16 15 15 15 15 15 14 15 13 14 14 15 15 15 13 13 13 14 13 13 14 14 14 15 15 16 16 16 15 15 14 14 15 15 15 14 14 14 13 13
16 17 17 16 14 14 14 14 14 14 13 13 13 12 12 12 14 12 13 13 13 12 12 13 15 15 15 15 15 15 15 15 14 14 14 15 14 14 13 13 13 13 12
16 16 16 15 14 14 13 13 14 14 13 13 12 12 12 11 11 11 12 12 11 11 12 13 15 14 15 15 14 15 14 14 14 14 14 14 13 13 13 12 12 12 12
14 14 15 15 14 14 13 13 13 13 13 12 12 12 12 11 10 10 10 12 12 12 13 14 14 13 14 14 14 14 13 13 13 13 14 13 12 12 12 11 11 11 10
13 15 15 15 14 13 13 13 13 13 13 12 12 12 12 12 11 11 11 11 12 12 13 13 13 13 13 13 13 13 12 12 13 13 12 12 12 11 11 11 11 10 10
13 15 14 14 14 13 13 12 13 13 13 12 12 12 12 12 11 11 11 11 12 12 12 13 13 13 12 12 11 11 11 11 12 12 11 11 10 10 10 10 10 9 9
14 13 14 13 14 13 13 12 12 12 12 12 12 11 12 12 12 12 12 11 11 12 12 12 11 11 11 11 10 10 10 11 11 11 10 9 8 8 8 8 8 8 8
13 12 12 12 13 13 13 12 12 12 12 12 12 12 12 11 11 11 11 11 10 11 11 12 11 11 10 10 9 9 9 9 9 9 9 8 8 7 6 6 6 7 7
13 12 11 12 12 12 12 12 12 12 12 12 12 12 11 11 12 11 10 10 10 11 10 10 10 10 9 8 8 8 8 8 8 8 8 8 7 7 6 5 5 5 5
12 11 11 11 11 11 11 11 11 11 11 11 12 11 11 11 11 11 11 10 10 9 9 9 9 9 8 7 6 6 6 6 7 7 7 7 6 6 6 5 5 5 4
11 11 11 11 10 11 10 9 8 8 9 9 10 10 10 10 10 10 10 10 10 10 9 9 8 7 7 7 7 5 5 5 6 6 6 6 5 5 5 5 5 5 4
11 11 11 11 10 10 10 9 8 8 8 9 8 9 9 9 9 9 9 9 9 8 8 8 8 6 6 7 6 5 2 4 4 5 5 5 5 5 5 5 5 5 4
10 10 10 11 10 10 10 9 8 7 6 7 7 7 8 9 9 9 9 10 8 9 8 9 9 8 6 6 7 7 1 3 3 4 4 4 4 4 4 4 4 4 4
5 10 11 10 9 9 9 9 10 6 5 6 7 7 7 7 7 8 8 9 9 8 8 8 8 9 8 7 6 6 7 5 2 1 3 4 4 4 4 4 3 3 3
3 7 10 9 8 8 8 8 8 6 6 6 6 6 6 6 6 7 7 8 7 8 8 7 7 7 7 7 5 4 5 4 4 1 0 1 3 3 3 3 3 3 2
2 4 6 7 6 7 7 7 7 7 6 5 5 5 5 5 5 6 6 6 7 6 7 7 7 6 6 6 6 5 4 4 3 2 -1 -1 0 2 2 2 2 2 2
Height
740 742 745 747 749 750 751 753 755 757 757 759 760 759 759 761 762 763 766 767 769 769 772 773 775 777 780 780 783 785 786 788 789 792 793 795 796 798 798 800 800 802 802
738 741 744 747 749 750 751 753 754 755 756 758 758 759 760 760 764 764 766 768 771 771 773 774 776 777 781 781 784 787 788 790 793 795 796 798 799 800 801 803 803 805 806
738 741 745 746 748 750 752 753 753 754 756 756 757 761 748 762 762 767 767 767 770 772 774 776 778 779 781 783 785 788 792 793 795 798 800 800 801 804 805 807 808 808 810
739 741 743 746 748 750 751 752 753 753 755 756 757 760 760 757 764 764 766 769 770 772 775 779 781 783 783 786 788 790 794 795 797 800 802 803 806 807 809 810 811 813 814
738 739 742 745 748 750 751 751 752 753 755 755 757 761 761 765 764 764 768 771 772 771 776 779 782 785 787 789 791 794 797 798 800 803 805 807 809 810 812 813 815 816 816
737 739 742 744 747 749 750 750 751 753 753 754 756 760 762 764 766 764 767 771 773 773 778 779 780 785 790 793 795 797 799 801 803 806 808 811 812 814 815 816 818 818 820
736 739 741 744 746 748 749 749 750 751 750 752 756 759 762 765 766 766 767 771 774 776 781 784 785 786 792 796 798 800 801 804 805 808 810 813 815 816 817 819 820 822 823
736 738 741 744 746 749 748 748 748 749 750 751 755 759 759 764 764 765 767 770 776 780 783 787 788 789 792 797 800 803 804 806 808 810 812 814 817 819 821 822 824 825 826
737 739 741 744 746 748 748 748 748 750 752 752 754 756 755 749 745 760 768 772 776 784 787 790 791 793 797 798 801 805 807 809 810 812 814 817 820 822 824 825 826 827 828
738 739 741 744 746 748 748 748 750 750 753 755 756 757 759 757 760 767 768 776 781 787 790 792 794 796 799 801 803 806 809 811 813 815 817 820 823 825 827 828 829 830 831
738 740 741 743 747 748 749 750 752 753 754 757 759 762 762 764 762 774 775 779 785 789 792 793 795 798 802 804 805 808 812 814 816 818 821 824 826 828 829 832 833 834 835
736 739 740 743 746 749 749 751 752 755 755 758 760 762 764 765 763 773 780 783 788 792 796 796 795 800 804 806 809 810 814 817 819 821 824 826 828 830 833 834 836 837 838
734 738 740 742 746 749 750 752 754 756 758 760 761 764 765 767 770 776 782 784 789 794 793 795 796 803 807 807 811 813 815 819 822 823 826 828 831 833 835 836 838 839 841
731 736 740 742 746 749 751 752 755 757 760 763 764 765 766 770 776 780 784 788 791 795 794 798 800 805 809 810 813 814 817 822 824 825 828 831 834 836 837 839 840 841 843
728 733 737 741 745 749 752 754 756 758 761 764 767 768 770 772 777 783 788 791 793 796 796 799 803 806 809 813 814 817 819 825 826 827 830 834 837 839 840 841 843 844 845
724 728 733 738 743 747 751 755 756 758 761 765 770 773 775 776 780 785 789 793 796 798 800 802 804 806 811 816 818 819 824 827 828 829 832 836 840 842 843 844 845 846 847
716 723 728 734 740 744 749 754 758 760 762 765 768 774 778 781 783 785 790 793 796 799 801 803 806 810 816 817 821 825 826 828 832 832 834 838 841 844 846 847 848 848 849
715 720 726 730 735 742 746 751 757 761 763 765 768 772 777 781 785 789 792 796 798 799 803 804 808 811 816 819 823 827 829 832 834 835 837 840 842 845 847 849 849 850 851
708 716 721 727 732 738 745 750 755 760 763 766 769 772 775 780 783 788 793 797 798 801 806 807 809 813 817 822 825 829 833 834 836 838 840 841 843 845 847 850 850 850 852
706 712 719 725 730 735 741 747 753 758 762 766 769 773 776 779 783 786 792 796 799 805 806 808 813 817 818 822 826 831 834 837 839 840 841 843 845 846 848 850 850 850 851
701 708 713 720 728 731 737 743 749 754 759 764 769 772 775 778 782 785 791 796 800 804 809 815 818 818 822 824 825 833 837 840 840 840 843 845 847 848 849 849 851 852 853
697 703 709 716 722 728 733 740 745 750 757 762 767 772 775 777 781 787 790 794 798 802 808 812 815 817 820 822 825 834 842 844 843 842 843 845 847 849 849 851 851 852 853
697 702 707 712 717 725 731 737 743 750 755 760 765 769 775 778 783 786 788 789 795 798 803 806 809 815 817 822 824 825 841 842 842 842 843 846 846 848 848 851 852 852 852
700 700 706 712 717 722 727 732 737 745 752 757 761 768 772 779 781 786 790 790 795 800 803 807 810 810 813 817 824 823 824 829 837 843 842 844 845 847 847 849 850 852 853
705 701 705 710 716 721 727 731 735 742 748 753 760 765 770 774 781 785 788 791 794 799 803 807 809 811 813 817 819 821 823 827 829 833 839 840 842 844 847 848 849 850 851
709 708 709 711 715 721 726 731 735 739 745 751 758 763 767 771 776 780 786 791 794 801 801 806 808 811 814 818 820 822 824 827 827 828 834 837 839 842 844 846 848 849 850
Wind_Speed
22 16 16 13 12 15 14 14 15 14 14 14 15 16 16 16 17 17 17 16 18 19 18 18 21 22 21 24 22 22 21 20 21 21 22 21 21 19 21 22 22 21 22
18 17 16 13 12 12 14 14 15 15 15 16 16 18 17 18 16 18 18 17 16 18 19 20 21 23 23 25 24 23 23 24 23 23 23 23 23 22 21 21 21 22 22
17 17 15 15 13 11 13 13 15 16 16 16 16 16 16 14 18 16 16 20 19 19 19 19 22 24 26 27 27 25 24 24 25 24 24 22 22 22 23 22 22 23 22
15 14 14 16 13 12 15 14 14 15 17 16 16 14 18 15 14 17 15 20 22 23 23 23 23 25 27 28 27 25 26 25 25 25 25 23 21 20 21 20 21 21 21
14 11 10 15 15 14 14 15 14 14 15 16 16 17 18 20 20 22 17 21 25 29 31 26 23 23 25 28 27 26 27 26 27 26 23 22 22 20 20 20 20 21 21
14 11 10 11 14 15 13 15 15 13 13 15 16 18 20 21 22 24 25 25 28 28 27 27 21 22 24 26 25 27 29 28 27 25 26 23 21 21 21 21 21 21 21
15 11 8 14 13 12 12 15 15 15 16 14 14 13 15 19 22 26 30 29 29 28 27 27 29 28 24 23 24 25 25 24 25 23 23 23 21 22 22 22 22 22 22
16 14 12 13 12 9 11 12 13 17 14 17 14 8 9 19 28 31 32 30 28 25 24 24 25 29 25 23 25 23 22 21 21 21 20 20 18 18 19 20 21 21 22
17 15 16 12 10 7 5 8 15 16 17 20 24 18 20 22 24 36 30 27 24 23 24 23 23 25 23 24 23 20 18 16 17 20 22 21 19 17 18 19 19 20 21
17 15 15 14 11 9 6 14 19 21 24 24 26 24 25 25 18 25 28 23 21 20 22 23 23 22 23 23 22 20 20 20 22 22 22 21 19 19 18 18 17 16 17
19 18 14 13 13 16 15 21 23 21 24 24 25 26 27 31 29 22 22 22 20 17 18 22 22 22 22 22 21 20 19 20 21 22 21 20 19 18 18 17 16 16 16
22 20 18 17 19 19 24 25 25 26 26 23 25 25 27 29 29 26 24 23 16 15 19 20 22 22 22 22 21 19 18 20 23 23 21 19 19 18 17 16 16 15 14
24 22 22 22 23 24 27 27 26 26 28 27 26 25 25 26 28 28 25 24 19 20 21 21 23 21 21 20 18 18 20 23 24 23 20 18 18 16 15 14 13 13 13
27 24 25 25 25 26 27 27 27 28 30 30 27 25 25 26 25 23 22 19 19 19 20 22 23 21 20 18 17 19 24 25 24 22 17 14 15 15 15 14 13 12 10
24 28 28 28 28 28 29 27 26 26 27 27 28 30 33 33 30 28 26 22 21 19 22 23 22 21 20 18 19 23 24 24 24 24 19 17 15 13 12 12 11 10 9
29 33 32 31 31 31 30 28 28 28 27 26 24 24 26 28 30 29 26 23 21 20 22 22 22 21 21 21 21 22 24 23 23 24 22 18 15 13 12 11 10 10 9
37 34 35 34 34 35 32 30 28 28 29 28 26 25 24 24 24 25 25 24 22 21 21 21 21 23 23 22 22 21 21 20 20 22 21 15 15 13 11 10 9 9 8
29 34 32 34 37 36 34 31 29 28 28 27 26 24 23 23 23 22 22 22 22 21 22 22 23 24 23 22 21 19 18 18 18 17 14 10 11 11 11 9 9 9 8
36 32 33 32 36 37 34 33 31 28 26 25 24 23 24 23 21 19 20 20 21 22 23 25 25 26 27 23 22 19 17 15 14 11 10 9 8 8 8 8 9 9 8
34 29 32 30 34 35 35 34 31 29 27 25 25 24 24 23 22 21 19 18 20 22 22 22 23 24 28 27 23 18 14 11 9 8 8 7 7 6 6 3 5 7 7
31 30 32 32 31 35 34 33 29 29 28 25 24 23 23 23 23 23 25 25 24 23 22 23 24 26 24 25 20 15 11 7 7 7 6 5 4 5 4 3 2 2 3
27 29 31 32 34 35 35 30 25 30 27 27 24 23 22 22 23 25 27 27 27 27 26 26 27 24 25 24 9 8 2 1 3 6 7 6 6 5 4 4 3 2 3
15 25 30 31 35 36 33 32 21 27 22 21 20 20 21 21 23 24 24 25 25 26 28 30 28 26 19 17 22 7 2 3 3 7 10 9 9 8 6 5 4 2 2
9 12 25 28 31 31 34 33 35 27 20 21 29 26 22 23 21 21 23 23 26 26 28 28 30 27 24 26 20 7 7 8 3 1 7 12 12 11 9 8 5 4 3
16 12 19 25 27 30 31 31 31 25 22 25 28 25 22 19 19 19 19 20 20 24 23 26 27 22 21 24 9 8 8 8 8 4 3 6 13 13 12 10 8 6 5
22 21 16 21 20 24 29 27 28 29 26 23 24 22 20 20 19 19 17 18 19 21 22 22 23 19 13 10 19 6 4 3 5 5 3 2 5 10 14 13 10 8 7
Wind_Direction
196 180 184 186 189 180 178 180 185 186 182 184 187 180 169 160 151 150 154 151 148 148 150 146 144 137 134 128 124 118 115 113 109 111 107 105 104 101 100 104 98 96 95
186 183 182 185 191 188 185 188 192 191 189 195 202 194 174 153 146 152 153 151 150 147 150 149 144 141 136 127 123 119 113 110 110 110 108 104 106 101 104 103 102 97 96
173 179 186 189 190 193 193 195 198 198 200 203 204 194 187 151 149 148 151 149 146 140 139 139 134 131 127 123 121 113 114 116 114 111 107 105 104 107 104 102 99 94 94
173 181 195 193 196 197 199 203 204 206 214 217 216 205 177 171 177 147 160 148 144 135 130 125 123 123 122 123 120 116 118 118 116 112 108 105 103 102 100 102 102 101 97
180 181 191 196 201 206 211 209 214 212 218 223 217 202 190 182 183 166 171 148 134 126 122 109 109 120 122 119 116 119 119 115 112 109 108 106 107 104 102 101 99 100 100
169 171 180 192 205 210 216 221 220 217 218 222 221 211 204 193 178 158 157 138 125 120 125 137 138 128 121 117 115 122 125 123 116 112 105 100 102 99 98 101 101 98 96
163 163 195 194 197 205 221 236 227 220 217 214 216 216 213 194 174 156 136 124 119 120 114 119 136 136 124 123 125 127 126 124 122 119 111 103 96 94 97 97 96 96 96
159 154 153 162 181 204 227 233 215 211 212 208 194 151 224 198 167 140 128 122 116 116 117 117 120 127 134 130 129 128 128 127 124 121 115 111 105 97 98 95 93 95 91
159 165 171 166 180 180 234 192 164 153 149 136 137 156 119 96 138 122 118 114 117 118 119 117 116 125 128 129 129 129 130 134 134 127 120 113 110 104 109 103 98 92 86
165 163 162 166 179 166 156 158 157 155 136 137 124 130 126 131 84 96 112 113 116 120 123 119 117 117 130 135 133 129 128 126 123 121 117 112 111 110 108 104 98 95 87
177 175 175 166 161 151 145 145 145 148 149 135 134 135 141 140 138 120 115 122 122 128 126 124 120 133 137 136 134 131 128 124 124 120 116 114 113 110 109 106 103 102 91
185 183 179 169 161 160 147 148 142 139 145 155 149 145 141 144 145 143 144 141 137 133 134 137 149 146 148 142 137 134 131 128 124 116 118 122 113 109 105 107 101 101 94
184 185 180 171 169 166 158 157 160 158 149 152 151 148 143 138 142 147 145 149 155 153 150 148 149 148 149 145 138 136 134 133 128 127 128 124 104 106 107 106 110 102 95
184 187 183 177 176 168 167 163 161 160 159 154 156 156 153 148 151 150 150 162 167 165 151 149 150 150 148 143 143 138 141 139 134 130 135 122 116 111 109 106 101 100 96
180 187 189 185 183 175 177 174 169 167 166 165 165 162 161 159 160 162 167 174 171 161 151 153 155 151 146 145 140 143 141 144 141 137 136 131 120 108 107 107 104 102 98
185 190 192 190 188 184 183 182 177 173 170 171 169 169 169 165 166 169 170 169 163 160 154 155 154 148 146 147 140 140 145 144 141 138 138 133 111 108 105 102 103 102 98
194 186 191 192 193 188 187 186 184 179 175 174 172 171 175 175 174 168 166 163 161 159 155 155 150 148 148 143 140 143 143 140 140 140 146 139 126 106 100 101 101 98 97
184 191 189 189 193 192 191 187 187 185 180 178 176 177 178 175 173 171 168 166 161 157 162 157 153 147 145 146 140 140 143 143 142 139 145 145 142 132 108 98 95 95 94
185 187 188 189 189 190 192 190 187 186 187 186 182 180 179 182 181 180 174 169 165 163 164 162 155 153 148 143 138 139 142 145 149 151 152 154 152 149 136 101 98 93 84
187 185 186 186 188 191 191 190 189 187 189 190 191 190 188 187 183 179 180 178 170 171 165 162 160 155 148 145 133 127 129 139 148 150 152 153 154 152 159 159 119 108 89
182 181 182 180 184 186 185 181 183 184 188 190 195 197 195 190 188 183 182 182 179 178 174 172 160 150 142 144 120 97 91 120 139 147 154 167 178 176 175 170 172 185 146
180 181 182 185 183 189 188 184 186 188 189 193 193 194 198 193 190 188 185 181 178 174 172 171 165 150 147 153 128 112 90 103 184 187 185 192 200 202 195 194 193 206 221
165 184 186 185 183 190 190 188 176 180 181 185 189 191 196 195 194 195 191 182 182 182 179 180 178 173 162 169 163 140 117 209 152 200 197 205 210 211 208 217 226 221 213
30 176 179 179 178 183 193 186 194 179 167 187 185 187 187 196 196 197 195 187 189 189 188 185 184 183 177 179 183 175 145 146 157 179 214 215 218 219 218 219 227 240 236
35 95 164 167 173 187 191 194 180 174 187 186 188 186 187 186 198 200 203 197 198 196 197 197 192 187 190 193 185 166 162 160 154 139 177 198 214 215 218 219 227 233 237
43 61 111 147 158 177 188 191 188 189 179 178 183 181 182 183 186 194 205 205 200 207 198 204 199 204 203 208 215 198 173 179 194 150 124 162 191 208 207 212 221 228 232